Regional Weather Roundup
Issued by NWS

Home | Current Version | Previous Version | Graphics & Text | Print | Product List | Glossary On
Versions: 1 2 3 4 5 6 7 8 9 10 11 12 13 14 15 16 17 18 19 20 21 22 23 24 25 26 27 28 29 30 31 32 33 34 35 36 37 38 39 40 41 42 43 44 45 46 47 48 49 50
000
ASUS45 KCYS 190210
RWRWY

WYOMING REGIONAL WEATHER ROUNDUP
NATIONAL WEATHER SERVICE CHEYENNE WY
800 PM MDT THU SEP 18 2014

NOTE:  "FAIR" INDICATES FEW OR NO CLOUDS BELOW 12,000 FEET
WITH NO SIGNIFICANT WEATHER AND/OR OBSTRUCTIONS TO VISIBILITY.

WYZ001-190300-
YELLOWSTONE NATIONAL PARK

CITY           SKY/WX    TMP DP  RH WIND       PRES   REMARKS
LK YELLOWSTONE   N/A     51  50  96 VRB3      30.12R
W YELLOWSTONE  NOT AVBL

$$
WYZ002>013-054>058-071-098>099-190300-
NORTHERN WYOMING

CITY           SKY/WX    TMP DP  RH WIND       PRES   REMARKS
JACKSON        CLOUDY    55  54  94 CALM      30.07R
CODY             N/A    N/A N/A N/A MISG        N/A
GREYBULL       CLOUDY    72  52  49 NW14      29.78R
WORLAND        CLOUDY    73  49  42 NE3       29.78S
SHERIDAN       CLOUDY    70  51  51 NW13      29.85R
BUFFALO        CLOUDY    67  50  54 W3        29.88R
GILLETTE       CLOUDY    61  50  67 CALM      29.81R
HULETT         FAIR      70  50  49 MISG      29.81
NEWCASTLE      FAIR      77  43  29 E8        29.78

$$
WYZ014>020-022>026-101>103-190300-
CENTRAL WYOMING

CITY           SKY/WX    TMP DP  RH WIND       PRES   REMARKS
BIG PINEY      MOCLDY    64  41  42 N10       30.01R
PINEDALE       CLOUDY    63  43  48 W9        30.03R
DUBOIS         MOCLDY    61  41  48 MISG      30.06R
LANDER         MOCLDY    76  39  26 SW14      29.85R
RIVERTON       MOCLDY    75  41  29 NW10      29.86R
CASPER         PTCLDY    69  32  25 SW7       29.86S
DOUGLAS        CLEAR     73  38  27 SE3       29.85R

$$
WYZ021-027>030-104>119-190300-
SOUTHERN WYOMING

CITY           SKY/WX    TMP DP  RH WIND       PRES   REMARKS
EVANSTON       PTCLDY    67  38  34 W10       30.01R
KEMMERER       PTCLDY   N/A N/A N/A SW9       30.02S
FORT BRIDGER   MOCLDY    75  40  27 SW13      30.03R
ROCK SPRINGS   CLEAR     72  35  25 S20       29.97S
DIXON          FAIR      60  44  54 NE5       30.03R
RAWLINS        CLEAR     69  28  21 W7        30.01S
SARATOGA       FAIR      64  34  32 SW9       30.04R
LARAMIE        CLEAR     62  33  33 SE9       30.06R
CHEYENNE       CLEAR     72  35  25 S8        29.99S
TORRINGTON     CLEAR     75  46  35 SE15      29.82R
PINE BLUFFS    FAIR      72  41  33 SE14      29.94R

$$



USA.gov is the U.S. government's official web portal to all federal, state and local government web resources and services.